Location: Newark
(49.5647°N, 8.2922°E)
Time: 06:47:37
(UTC+00:00)

Transit 2A - Pass Details

Date: 27 February 2020
Orbit: 597 x 962 km, 66.7° (Epoch: 06 April)

Event Time Altitude Azimuth Distance (km) Brightness Sun altitude
Rises 12:49:00 0° 244° (WSW) 2,832 9.6 30.1°
Reaches altitude 10° 12:51:23 10° 254° (WSW) 1,943 8.7 29.9°
Maximum altitude 12:55:18 32° 319° (NW) 1,058 6.8 29.7°
Drops below altitude 10° 12:59:26 10° 24° (NNE) 2,050 7.8 29.4°
Sets 13:02:01 0° 34° (NE) 3,015 8.5 29.3°
